Location: Dehesa de la Cepeda
(40.6574°N, 4.3013°W)
Time: 17:27:38
(UTC+00:00)

Vanguard 1 - All Passes

Search period start: 27 July 2021 00:00
Search period end: 06 August 2021 00:00
Orbit: 651 x 3832 km, 34.2° (Epoch: 26 July)

Date Brightness Start Highest point End Pass type
(mag) Time Alt. Az. Time Alt. Az. Time Alt. Az.
27 Jul - 11:26:40 10° SSW 11:31:33 32° SSE 11:39:04 10° E daylight
27 Jul - 13:44:39 10° WSW 13:51:40 60° S 14:04:45 10° E daylight
27 Jul - 16:04:01 10° W 16:13:42 53° SSW 16:31:04 10° SE daylight
27 Jul - 18:25:27 10° W 18:37:05 31° SSW 18:53:57 10° SSE daylight
28 Jul - 11:46:59 10° SW 11:52:09 40° SSE 12:00:31 10° E daylight
28 Jul - 14:05:23 10° WSW 14:12:38 60° S 14:26:11 10° ESE daylight
28 Jul - 16:25:00 10° W 16:34:49 46° SSW 16:51:53 10° SE daylight
28 Jul - 18:47:28 10° W 18:58:13 24° SW 19:12:55 10° S daylight
29 Jul - 09:51:20 10° S 09:53:51 14° SE 09:56:47 10° ESE daylight
29 Jul - 12:07:29 10° WSW 12:12:51 47° SSE 12:21:54 10° E daylight
29 Jul - 14:26:11 10° W 14:33:38 57° S 14:47:30 10° ESE daylight
29 Jul - 16:46:06 10° W 16:55:57 39° SSW 17:12:22 10° SE daylight
29 Jul - 19:10:20 10° WSW 19:19:23 18° SW 19:30:48 10° S daylight
30 Jul - 10:10:45 10° SSW 10:14:18 20° SSE 10:18:49 10° E daylight
30 Jul - 12:28:05 10° WSW 12:33:40 52° S 12:43:15 10° E daylight
30 Jul - 14:47:00 10° W 14:54:39 52° S 15:08:42 10° ESE daylight
30 Jul - 17:07:24 10° W 17:17:06 32° SSW 17:32:24 10° SSE daylight
30 Jul - 19:35:37 10° SW 19:40:33 12° SW 19:46:02 10° SSW daylight
31 Jul - 10:30:47 10° SSW 10:34:50 28° SSE 10:40:22 10° E daylight
31 Jul - 12:48:46 10° WSW 12:54:31 54° S 13:04:35 10° ESE daylight
31 Jul - 15:07:54 10° W 15:15:41 46° SSW 15:29:41 10° SE daylight
31 Jul - 17:29:03 10° WSW 17:38:16 26° SSW 17:51:53 10° SSE daylight
01 Aug - 10:51:07 10° SW 10:55:29 35° SSE 11:01:42 10° E daylight
01 Aug - 13:09:30 10° WSW 13:15:25 54° S 13:25:52 10° ESE daylight
01 Aug - 15:28:53 10° W 15:36:45 40° SSW 15:50:23 10° SE daylight
01 Aug - 17:51:17 10° WSW 17:59:26 19° SSW 18:10:33 10° S daylight
02 Aug - 08:55:15 10° S 08:57:08 12° SSE 08:59:05 10° ESE daylight
02 Aug - 11:11:37 10° WSW 11:16:11 42° SSE 11:22:57 10° E daylight
02 Aug - 13:30:18 10° W 13:36:21 50° S 13:47:03 10° ESE daylight
02 Aug - 15:50:02 10° W 15:57:51 33° SSW 16:10:43 10° SE daylight
02 Aug - 18:14:54 10° WSW 18:20:38 13° SW 18:27:36 10° S daylight
03 Aug - 09:14:36 10° SSW 09:17:41 18° SSE 09:21:08 10° ESE daylight
03 Aug - 11:32:15 10° WSW 11:36:57 46° S 11:44:11 10° E daylight
03 Aug - 13:51:08 10° W 13:57:19 45° S 14:08:05 10° ESE daylight
03 Aug - 16:11:26 10° WSW 16:18:57 26° SSW 16:30:35 10° SSE daylight
04 Aug - 09:34:40 10° SW 09:38:19 25° SSE 09:42:35 10° ESE daylight
04 Aug - 11:52:57 10° WSW 11:57:46 48° S 12:05:21 10° ESE daylight
04 Aug - 14:12:02 10° W 14:18:17 39° SSW 14:28:55 10° SE daylight
04 Aug - 16:33:18 10° WSW 16:40:06 20° SSW 16:49:46 10° SSE daylight
05 Aug - 09:55:02 10° SW 09:59:00 32° SSE 10:03:48 10° E daylight
05 Aug - 12:13:42 10° WSW 12:18:38 47° S 12:26:28 10° ESE daylight
05 Aug - 14:33:05 10° WSW 14:39:18 32° SSW 14:49:27 10° SE daylight
05 Aug - 16:56:09 10° WSW 17:01:17 14° SSW 17:07:44 10° S daylight
